PWSweather.com
Personal Weather Stations
Station Observations
KIDJEROME
Sse Jerome Butte , Jerome, ID 83338

Sse Jerome Butte Jerome, ID 83338

Lat: 42.6981891, Lon: -114.4041362

Elevation: 3960

Station Type: Davis Vantage Pro 2

Latest ConditionsUpdated 10:30:01 AM MST Sunday, Nov 19, 2017
Currently Today's Max Today's Min Today's Average
Temperature 33.2°F0.7°C 33.2°F0.7°C 25.3°F-3.7°C 27.5°F-2.5°C
Dew Point 24.5°F-4.2°C 25.4°F-3.7°C 20.2°F-6.6°C 21.6°F-5.8°C
Winds 14.0 mph ENE22.5 kmh ENE 14.0 mph NE22.5 kmh NE - 11.0 mph 17.7 kmh
Wind Gusts 17.0 mph27.4 kmh 18.0 mph29.0 kmh - -
Humidity 70% 81% 70% 78%
Pressure 30.27 in1025.1 mb 30.35 in1027.8 mb 30.27 in1025.1 mb -
Hour Temp Dew Point Humidity Winds Wind Gusts Pressure Precip Precip Rate Daily Precip Total
10:30 AM 33.2°F0.7°C 24.5°F-4.2°C 70% 14.0 mph ENE22.5 kmh ENE 17.0 mph27.4 kmh 30.27 in1025.1 mb 0.00 in0.0 mm 0.00 in0.0 mm 0.00 in0.0 mm
10:15 AM 32.7°F0.4°C 24.3°F-4.3°C 71% 14.0 mph ENE22.5 kmh ENE 17.0 mph27.4 kmh 30.27 in1025.1 mb 0.00 in0.0 mm 0.00 in0.0 mm 0.00 in0.0 mm
10:00 AM 31.8°F-0.1°C 25.4°F-3.7°C 77% 14.0 mph NE22.5 kmh NE 18.0 mph29.0 kmh 30.28 in1025.4 mb 0.00 in0.0 mm 0.00 in0.0 mm 0.00 in0.0 mm
09:45 AM 30.6°F-0.8°C 23.3°F-4.8°C 74% 13.0 mph NE20.9 kmh NE 17.0 mph27.4 kmh 30.28 in1025.4 mb 0.00 in0.0 mm 0.00 in0.0 mm 0.00 in0.0 mm
09:30 AM 29.5°F-1.4°C 22.9°F-5.1°C 76% 12.0 mph NE19.3 kmh NE 16.0 mph25.7 kmh 30.28 in1025.4 mb 0.00 in0.0 mm 0.00 in0.0 mm 0.00 in0.0 mm
09:15 AM 28.5°F-1.9°C 22.5°F-5.3°C 78% 13.0 mph ENE20.9 kmh ENE 17.0 mph27.4 kmh 30.28 in1025.4 mb 0.00 in0.0 mm 0.00 in0.0 mm 0.00 in0.0 mm
09:00 AM 27.8°F-2.3°C 22.1°F-5.5°C 79% 13.0 mph ENE20.9 kmh ENE 16.0 mph25.7 kmh 30.27 in1025.1 mb 0.00 in0.0 mm 0.00 in0.0 mm 0.00 in0.0 mm
08:45 AM 26.9°F-2.8°C 21.6°F-5.8°C 80% 12.0 mph ENE19.3 kmh ENE 16.0 mph25.7 kmh 30.28 in1025.4 mb 0.00 in0.0 mm 0.00 in0.0 mm 0.00 in0.0 mm
08:30 AM 26.3°F-3.2°C 21.3°F-5.9°C 81% 12.0 mph ENE19.3 kmh ENE 16.0 mph25.7 kmh 30.28 in1025.4 mb 0.00 in0.0 mm 0.00 in0.0 mm 0.00 in0.0 mm
08:15 AM 25.8°F-3.4°C 20.8°F-6.2°C 81% 12.0 mph NE19.3 kmh NE 15.0 mph24.1 kmh 30.28 in1025.4 mb 0.00 in0.0 mm 0.00 in0.0 mm 0.00 in0.0 mm
08:00 AM 25.6°F-3.6°C 20.6°F-6.3°C 81% 11.0 mph NE17.7 kmh NE 15.0 mph24.1 kmh 30.29 in1025.7 mb 0.00 in0.0 mm 0.00 in0.0 mm 0.00 in0.0 mm
07:45 AM 25.4°F-3.7°C 20.4°F-6.4°C 81% 11.0 mph NE17.7 kmh NE 14.0 mph22.5 kmh 30.29 in1025.7 mb 0.00 in0.0 mm 0.00 in0.0 mm 0.00 in0.0 mm
07:30 AM 25.3°F-3.7°C 20.3°F-6.5°C 81% 11.0 mph NE17.7 kmh NE 16.0 mph25.7 kmh 30.28 in1025.4 mb 0.00 in0.0 mm 0.00 in0.0 mm 0.00 in0.0 mm
07:15 AM 25.6°F-3.6°C 20.3°F-6.5°C 80% 12.0 mph NE19.3 kmh NE 16.0 mph25.7 kmh 30.28 in1025.4 mb 0.00 in0.0 mm 0.00 in0.0 mm 0.00 in0.0 mm
07:00 AM 25.8°F-3.4°C 20.2°F-6.6°C 79% 11.0 mph NE17.7 kmh NE 15.0 mph24.1 kmh 30.28 in1025.4 mb 0.00 in0.0 mm 0.00 in0.0 mm 0.00 in0.0 mm
06:45 AM 26.0°F-3.3°C 20.7°F-6.3°C 80% 12.0 mph NE19.3 kmh NE 16.0 mph25.7 kmh 30.28 in1025.4 mb 0.00 in0.0 mm 0.00 in0.0 mm 0.00 in0.0 mm
06:30 AM 26.1°F-3.3°C 20.8°F-6.2°C 80% 13.0 mph NE20.9 kmh NE 17.0 mph27.4 kmh 30.28 in1025.4 mb 0.00 in0.0 mm 0.00 in0.0 mm 0.00 in0.0 mm
06:15 AM 26.0°F-3.3°C 20.7°F-6.3°C 80% 13.0 mph NE20.9 kmh NE 18.0 mph29.0 kmh 30.28 in1025.4 mb 0.00 in0.0 mm 0.00 in0.0 mm 0.00 in0.0 mm
06:00 AM 26.0°F-3.3°C 21.0°F-6.1°C 81% 11.0 mph NE17.7 kmh NE 16.0 mph25.7 kmh 30.28 in1025.4 mb 0.00 in0.0 mm 0.00 in0.0 mm 0.00 in0.0 mm
05:45 AM 25.8°F-3.4°C 20.8°F-6.2°C 81% 11.0 mph NE17.7 kmh NE 14.0 mph22.5 kmh 30.28 in1025.4 mb 0.00 in0.0 mm 0.00 in0.0 mm 0.00 in0.0 mm
05:30 AM 25.8°F-3.4°C 20.8°F-6.2°C 81% 11.0 mph NE17.7 kmh NE 15.0 mph24.1 kmh 30.28 in1025.4 mb 0.00 in0.0 mm 0.00 in0.0 mm 0.00 in0.0 mm
05:15 AM 25.8°F-3.4°C 20.5°F-6.4°C 80% 12.0 mph NE19.3 kmh NE 16.0 mph25.7 kmh 30.28 in1025.4 mb 0.00 in0.0 mm 0.00 in0.0 mm 0.00 in0.0 mm
05:00 AM 26.0°F-3.3°C 20.7°F-6.3°C 80% 11.0 mph NE17.7 kmh NE 16.0 mph25.7 kmh 30.28 in1025.4 mb 0.00 in0.0 mm 0.00 in0.0 mm 0.00 in0.0 mm
04:45 AM 26.3°F-3.2°C 21.3°F-5.9°C 81% 11.0 mph NE17.7 kmh NE 15.0 mph24.1 kmh 30.29 in1025.7 mb 0.00 in0.0 mm 0.00 in0.0 mm 0.00 in0.0 mm
04:30 AM 26.3°F-3.2°C 21.3°F-5.9°C 81% 12.0 mph NE19.3 kmh NE 16.0 mph25.7 kmh 30.29 in1025.7 mb 0.00 in0.0 mm 0.00 in0.0 mm 0.00 in0.0 mm
04:15 AM 26.1°F-3.3°C 20.8°F-6.2°C 80% 10.0 mph NE16.1 kmh NE 14.0 mph22.5 kmh 30.30 in1026.1 mb 0.00 in0.0 mm 0.00 in0.0 mm 0.00 in0.0 mm
04:00 AM 26.6°F-3.0°C 21.0°F-6.1°C 79% 11.0 mph NE17.7 kmh NE 15.0 mph24.1 kmh 30.30 in1026.1 mb 0.00 in0.0 mm 0.00 in0.0 mm 0.00 in0.0 mm
03:45 AM 27.0°F-2.8°C 21.1°F-6.1°C 78% 10.0 mph NE16.1 kmh NE 14.0 mph22.5 kmh 30.31 in1026.4 mb 0.00 in0.0 mm 0.00 in0.0 mm 0.00 in0.0 mm
03:30 AM 27.2°F-2.7°C 21.2°F-6.0°C 78% 10.0 mph NE16.1 kmh NE 13.0 mph20.9 kmh 30.30 in1026.1 mb 0.00 in0.0 mm 0.00 in0.0 mm 0.00 in0.0 mm
03:15 AM 27.3°F-2.6°C 21.3°F-5.9°C 78% 10.0 mph NE16.1 kmh NE 13.0 mph20.9 kmh 30.32 in1026.8 mb 0.00 in0.0 mm 0.00 in0.0 mm 0.00 in0.0 mm
03:00 AM 27.8°F-2.3°C 21.5°F-5.8°C 77% 9.0 mph NE14.5 kmh NE 13.0 mph20.9 kmh 30.32 in1026.8 mb 0.00 in0.0 mm 0.00 in0.0 mm 0.00 in0.0 mm
02:45 AM 27.8°F-2.3°C 21.8°F-5.7°C 78% 9.0 mph NE14.5 kmh NE 14.0 mph22.5 kmh 30.32 in1026.8 mb 0.00 in0.0 mm 0.00 in0.0 mm 0.00 in0.0 mm
02:30 AM 27.6°F-2.4°C 21.6°F-5.8°C 78% 11.0 mph NE17.7 kmh NE 15.0 mph24.1 kmh 30.33 in1027.1 mb 0.00 in0.0 mm 0.00 in0.0 mm 0.00 in0.0 mm
02:15 AM 27.3°F-2.6°C 21.6°F-5.8°C 79% 9.0 mph NE14.5 kmh NE 15.0 mph24.1 kmh 30.32 in1026.8 mb 0.00 in0.0 mm 0.00 in0.0 mm 0.00 in0.0 mm
02:00 AM 27.9°F-2.3°C 21.9°F-5.6°C 78% 9.0 mph NE14.5 kmh NE 15.0 mph24.1 kmh 30.33 in1027.1 mb 0.00 in0.0 mm 0.00 in0.0 mm 0.00 in0.0 mm
01:45 AM 27.6°F-2.4°C 21.9°F-5.6°C 79% 8.0 mph NE12.9 kmh NE 14.0 mph22.5 kmh 30.33 in1027.1 mb 0.00 in0.0 mm 0.00 in0.0 mm 0.00 in0.0 mm
01:30 AM 28.1°F-2.2°C 22.1°F-5.5°C 78% 9.0 mph NE14.5 kmh NE 12.0 mph19.3 kmh 30.33 in1027.1 mb 0.00 in0.0 mm 0.00 in0.0 mm 0.00 in0.0 mm
01:15 AM 28.5°F-1.9°C 22.2°F-5.4°C 77% 10.0 mph NE16.1 kmh NE 14.0 mph22.5 kmh 30.34 in1027.4 mb 0.00 in0.0 mm 0.00 in0.0 mm 0.00 in0.0 mm
01:00 AM 28.5°F-1.9°C 22.2°F-5.4°C 77% 10.0 mph NE16.1 kmh NE 15.0 mph24.1 kmh 30.34 in1027.4 mb 0.00 in0.0 mm 0.00 in0.0 mm 0.00 in0.0 mm
12:45 AM 28.5°F-1.9°C 22.2°F-5.4°C 77% 8.0 mph NE12.9 kmh NE 12.0 mph19.3 kmh 30.34 in1027.4 mb 0.00 in0.0 mm 0.00 in0.0 mm 0.00 in0.0 mm
12:30 AM 29.1°F-1.6°C 22.2°F-5.4°C 75% 10.0 mph NE16.1 kmh NE 13.0 mph20.9 kmh 30.35 in1027.8 mb 0.00 in0.0 mm 0.00 in0.0 mm 0.00 in0.0 mm
12:15 AM 29.5°F-1.4°C 22.2°F-5.4°C 74% 8.0 mph NE12.9 kmh NE 14.0 mph22.5 kmh 30.34 in1027.4 mb 0.00 in0.0 mm 0.00 in0.0 mm 0.00 in0.0 mm
12:00 AM 30.0°F-1.1°C 22.4°F-5.3°C 73% 10.0 mph NE16.1 kmh NE 12.0 mph19.3 kmh 30.34 in1027.4 mb 0.00 in0.0 mm 0.00 in0.0 mm 0.00 in0.0 mm